Location: L�Ave Maria
(50.7161°N, 1.5911°E)
Time: 00:17:17
(UTC+00:00)

USA 267 - Pass Details

Date: 10 July 2020
Orbit: 1101 x 1107 km, 123.0° (Epoch: 01 August)

Event Time Altitude Azimuth Distance (km) Brightness Sun altitude
Exits shadow 21:24:45 - 101° (E) 3,903 5.7 -9.6°
Reaches altitude 10° 21:27:12 10° 99° (E) 2,966 5.1 -9.9°
Maximum altitude 21:33:40 66° 19° (NNE) 1,203 3.7 -10.5°
Drops below altitude 10° 21:40:10 10° 299° (WNW) 2,975 6.6 -11.0°
Sets 21:42:40 0° 297° (WNW) 3,935 7.3 -11.2°
